Tracking 18850 objects as of 22-Nov-2017
HD Live streaming from Space Station
objects crossing your sky now

FENGYUN 1C DEB

Track FENGYUN 1C DEB now!
10-day predictions


NORAD ID: 30328
Int'l Code: 1999-025AAP
Perigee: 858.4 km
Apogee: 865.6 km
Inclination: 99.0 °
Period: 102.0 minutes
Semi major axis: 7232 km
RCS: 0.046 m2 (small)
Launch date: May 10, 1999
Source: People's Republic of China (PRC)
Launch site: Taiyaun Space Center, China (TSC)

Note: This is SATELLITE DEBRIS
aabbcc
Your satellite tracking list
Your tracking list is empty




NASA's NSSDC Master Catalog

Two Line Element Set (TLE):
1 30328U 99025AAP 17326.59569855 +.00000067 +00000-0 +62069-4 0  9992
2 30328 098.9503 349.9201 0004948 209.1861 269.6531 14.11321757557553
Source of the keplerian elements: AFSPC